GW1917 Weather Reports


Display with metric or nautical units.
time (UTC)temp
F
wind
direction
speed
MPH
gust
MPH
rain 1hr
in
rain 24hr
in
rain mn
in
humidity
%
barometer
mb
20260509212445 65 219 4.0 5.0 0.00 0.00 0.00 62 1004.7
20260509211942 64 132 4.0 5.0 0.00 0.00 0.00 63 1004.8
20260509211437 65 174 3.0 3.0 0.00 0.00 0.00 62 1004.8
20260509210934 65 158 2.0 2.0 0.00 0.00 0.00 64 1004.8
20260509210431 64 174 3.0 5.0 0.00 0.00 0.00 65 1004.9
20260509205927 64 154 3.0 3.0 0.00 0.00 0.00 64 1004.9
20260509205421 64 133 1.0 1.0 0.00 0.00 0.00 63 1004.9
20260509204917 64 124 0.0 1.0 0.00 0.00 0.00 65 1005.2
20260509204414 63 141 3.0 5.0 0.00 0.00 0.00 66 1004.9
20260509203911 62 151 3.0 3.0 0.00 0.00 0.00 67 1005.0
20260509203406 63 165 2.0 2.0 0.00 0.00 0.00 66 1005.0
20260509202904 64 180 2.0 2.0 0.00 0.00 0.00 65 1005.1
20260509202359 64 148 3.0 5.0 0.00 0.00 0.00 64 1005.0
20260509201855 64 161 2.0 2.0 0.00 0.00 0.00 65 1005.3
20260509201350 62 148 2.0 3.0 0.00 0.00 0.00 67 1005.3
20260509200848 61 158 2.0 2.0 0.00 0.00 0.00 66 1005.5
20260509200342 62 168 3.0 3.0 0.00 0.00 0.00 66 1005.3
20260509195840 61 151 3.0 5.0 0.00 0.00 0.00 67 1005.5
20260509195340 61 114 2.0 2.0 0.00 0.00 0.00 68 1005.8
20260509194839 60 143 3.0 5.0 0.00 0.00 0.00 68 1005.7
20260509194336 62 166 1.0 2.0 0.00 0.00 0.00 67 1005.8
20260509193832 62 164 4.0 7.0 0.00 0.00 0.00 65 1005.7
20260509193327 61 141 2.0 3.0 0.00 0.00 0.00 65 1005.8
20260509192823 62 156 3.0 3.0 0.00 0.00 0.00 65 1005.8
20260509192319 64 180 5.0 7.0 0.00 0.00 0.00 60 1005.9
20260509191815 63 176 3.0 3.0 0.00 0.00 0.00 61 1006.0
20260509191311 63 154 1.0 3.0 0.00 0.00 0.00 64 1005.9
20260509190806 63 189 3.0 3.0 0.00 0.00 0.00 63 1006.0
20260509190304 63 184 1.0 2.0 0.00 0.00 0.00 64 1006.0
20260509185801 62 191 3.0 3.0 0.00 0.00 0.00 65 1006.0
20260509185257 62 129 2.0 3.0 0.00 0.00 0.00 65 1006.2
20260509184755 63 189 4.0 5.0 0.00 0.00 0.00 62 1006.1
20260509184252 64 170 2.0 2.0 0.00 0.00 0.00 61 1006.4
20260509183748 64 173 1.0 2.0 0.00 0.00 0.00 61 1006.2
20260509183244 66 155 1.0 2.0 0.00 0.00 0.00 57 1006.2
20260509182740 64 201 2.0 3.0 0.00 0.00 0.00 58 1006.3
20260509182237 64 140 1.0 2.0 0.00 0.00 0.00 59 1006.5
20260509181734 65 168 4.0 5.0 0.00 0.00 0.00 59 1006.3
20260509181232 66 185 3.0 3.0 0.00 0.00 0.00 55 1006.2
20260509180729 65 120 1.0 1.0 0.00 0.00 0.00 60 1006.2
20260509180225 65 158 3.0 5.0 0.00 0.00 0.00 56 1006.4
20260509175721 64 79 3.0 3.0 0.00 0.00 0.00 59 1006.2
20260509175218 64 154 0.0 1.0 0.00 0.00 0.00 60 1006.4
20260509174714 63 167 2.0 3.0 0.00 0.00 0.00 60 1006.6
20260509174209 65 152 2.0 3.0 0.00 0.00 0.00 57 1006.3
20260509173706 64 177 2.0 5.0 0.00 0.00 0.00 58 1006.3
20260509173201 65 132 2.0 2.0 0.00 0.00 0.00 58 1006.5
20260509172657 64 149 2.0 3.0 0.00 0.00 0.00 59 1006.4
20260509172154 65 200 3.0 5.0 0.00 0.00 0.00 57 1006.8
20260509171649 65 155 2.0 2.0 0.00 0.00 0.00 56 1006.8
20260509171146 63 154 2.0 3.0 0.00 0.00 0.00 59 1006.9
20260509170643 64 151 2.0 2.0 0.00 0.00 0.00 60 1006.9
20260509170139 63 137 1.0 2.0 0.00 0.00 0.00 58 1006.9
20260509165637 63 194 0.0 1.0 0.00 0.00 0.00 61 1007.2
20260509165133 62 182 3.0 5.0 0.00 0.00 0.00 61 1007.1
20260509164629 62 108 4.0 6.0 0.00 0.00 0.00 57 1007.1
20260509164125 64 171 3.0 3.0 0.00 0.00 0.00 59 1007.3
20260509163623 64 158 1.0 1.0 0.00 0.00 0.00 62 1007.1
20260509163118 63 171 3.0 3.0 0.00 0.00 0.00 61 1007.2
20260509162616 62 182 3.0 3.0 0.00 0.00 0.00 63 1007.4
20260509162112 62 137 1.0 2.0 0.00 0.00 0.00 63 1007.4
20260509161608 62 135 4.0 5.0 0.00 0.00 0.00 62 1007.4
20260509161108 61 159 2.0 3.0 0.00 0.00 0.00 65 1007.5
20260509160605 61 173 2.0 2.0 0.00 0.00 0.00 66 1007.5
20260509160100 61 207 3.0 3.0 0.00 0.00 0.00 64 1008.1
20260509155556 61 171 2.0 2.0 0.00 0.00 0.00 64 1008.2
20260509155052 62 194 4.0 5.0 0.00 0.00 0.00 61 1008.1
20260509154543 62 130 4.0 5.0 0.00 0.00 0.00 63 1008.1
20260509154041 61 90 0.0 0.0 0.00 0.00 0.00 62 1008.2
20260509153538 62 183 1.0 1.0 0.00 0.00 0.00 63 1008.1
20260509153035 62 171 2.0 3.0 0.00 0.00 0.00 61 1008.2
20260509152530 61 118 2.0 2.0 0.00 0.00 0.00 62 1008.4
20260509152028 61 176 1.0 2.0 0.00 0.00 0.00 62 1008.2
20260509151524 61 297 2.0 3.0 0.00 0.00 0.00 60 1008.2
20260509151022 60 153 1.0 3.0 0.00 0.00 0.00 63 1008.5
20260509150519 61 144 3.0 3.0 0.00 0.00 0.00 60 1008.5
20260509150018 61 143 1.0 1.0 0.00 0.00 0.00 61 1008.6
20260509145513 60 152 1.0 1.0 0.00 0.00 0.00 61 1008.5
20260509145008 61 162 3.0 3.0 0.00 0.00 0.00 59 1008.6
20260509144505 61 153 1.0 2.0 0.00 0.00 0.00 61 1008.6
20260509144002 61 152 2.0 2.0 0.00 0.00 0.00 59 1008.4
20260509143459 61 154 1.0 2.0 0.00 0.00 0.00 61 1008.5
20260509142956 60 162 2.0 3.0 0.00 0.00 0.00 61 1008.5
20260509142452 60 159 0.0 1.0 0.00 0.00 0.00 65 1008.8
20260509141948 59 182 3.0 3.0 0.00 0.00 0.00 63 1008.7
20260509141444 60 160 1.0 2.0 0.00 0.00 0.00 64 1008.7
20260509140941 59 136 1.0 2.0 0.00 0.00 0.00 65 1008.7
20260509140437 59 161 2.0 2.0 0.00 0.00 0.00 64 1008.6
20260509135936 59 151 3.0 3.0 0.00 0.00 0.00 62 1008.7
20260509135433 59 164 1.0 1.0 0.00 0.00 0.00 62 1009.0
20260509134930 59 143 3.0 3.0 0.00 0.00 0.00 62 1008.8
20260509134428 58 171 2.0 2.0 0.00 0.00 0.00 61 1008.7
20260509133925 58 156 2.0 2.0 0.00 0.00 0.00 62 1008.8
20260509133421 57 157 2.0 2.0 0.00 0.00 0.00 63 1008.9
20260509132920 58 147 2.0 3.0 0.00 0.00 0.00 60 1009.0
20260509132418 59 99 2.0 3.0 0.00 0.00 0.00 59 1009.0
20260509131914 58 163 2.0 3.0 0.00 0.00 0.00 58 1009.0
20260509131412 57 158 2.0 2.0 0.00 0.00 0.00 58 1009.0
20260509130908 57 175 2.0 2.0 0.00 0.00 0.00 56 1008.9
20260509130403 57 150 1.0 1.0 0.00 0.00 0.00 55 1008.7
20260509125901 56 181 2.0 2.0 0.00 0.00 0.00 55 1008.9
20260509125357 56 153 2.0 2.0 0.00 0.00 0.00 55 1008.9
20260509124853 56 119 2.0 2.0 0.00 0.00 0.00 52 1008.9
20260509124350 56 145 3.0 3.0 0.00 0.00 0.00 52 1008.8
20260509123848 56 144 4.0 7.0 0.00 0.00 0.00 50 1008.8
20260509123345 55 136 0.0 1.0 0.00 0.00 0.00 50 1008.8
20260509122841 55 141 3.0 3.0 0.00 0.00 0.00 50 1009.3
20260509122338 55 158 2.0 2.0 0.00 0.00 0.00 49 1009.2
20260509121835 55 201 3.0 3.0 0.00 0.00 0.00 48 1009.2
20260509121332 54 162 3.0 3.0 0.00 0.00 0.00 49 1009.1
20260509120830 53 121 5.0 6.0 0.00 0.00 0.00 49 1009.0
20260509120327 53 152 3.0 3.0 0.00 0.00 0.00 50 1009.3
20260509115826 52 197 5.0 8.0 0.00 0.00 0.00 49 1009.4
20260509115322 52 137 2.0 3.0 0.00 0.00 0.00 53 1009.5
20260509114820 51 158 1.0 1.0 0.00 0.00 0.00 54 1009.4
20260509114319 51 139 1.0 1.0 0.00 0.00 0.00 53 1009.3
20260509113818 51 153 1.0 2.0 0.00 0.00 0.00 53 1009.3
20260509113314 51 163 1.0 1.0 0.00 0.00 0.00 54 1009.4
20260509112811 50 168 2.0 2.0 0.00 0.00 0.00 54 1009.3
20260509112308 50 128 3.0 3.0 0.00 0.00 0.00 54 1009.2
20260509111805 50 130 2.0 2.0 0.00 0.00 0.00 55 1009.4
20260509111302 50 157 2.0 2.0 0.00 0.00 0.00 54 1009.2
20260509110759 49 147 1.0 2.0 0.00 0.00 0.00 56 1009.5
20260509110255 48 142 1.0 1.0 0.00 0.00 0.00 57 1009.3
20260509105754 48 153 1.0 1.0 0.00 0.00 0.00 58 1009.4
20260509105252 47 153 1.0 1.0 0.00 0.00 0.00 59 1009.4
20260509104748 46 153 1.0 1.0 0.00 0.00 0.00 61 1009.5
20260509104245 45 157 1.0 1.0 0.00 0.00 0.00 61 1009.2
20260509103743 45 147 1.0 1.0 0.00 0.00 0.00 63 1009.2
20260509103240 44 154 0.0 1.0 0.00 0.00 0.00 64 1009.4
20260509102738 44 153 1.0 1.0 0.00 0.00 0.00 63 1009.3
20260509102235 43 152 2.0 3.0 0.00 0.00 0.00 65 1009.2
20260509101731 43 155 1.0 2.0 0.00 0.00 0.00 66 1009.4
20260509101228 42 145 1.0 1.0 0.00 0.00 0.00 66 1009.2
20260509100725 42 148 1.0 1.0 0.00 0.00 0.00 67 1009.3
20260509100222 42 143 1.0 1.0 0.00 0.00 0.00 69 1009.2
20260509095719 42 144 2.0 2.0 0.00 0.00 0.00 68 1009.3
20260509095216 41 139 1.0 1.0 0.00 0.00 0.00 69 1009.3
20260509094713 41 144 1.0 1.0 0.00 0.00 0.00 70 1009.4
20260509094210 42 145 1.0 1.0 0.00 0.00 0.00 70 1009.4
20260509093708 42 141 1.0 1.0 0.00 0.00 0.00 69 1009.6
20260509093205 42 139 1.0 1.0 0.00 0.00 0.00 68 1009.6
20260509092703 42 142 1.0 1.0 0.00 0.00 0.00 68 1009.5
20260509092201 42 155 1.0 2.0 0.00 0.00 0.00 67 1009.4
20260509091659 42 147 1.0 1.0 0.00 0.00 0.00 68 1009.5
20260509091154 42 148 0.0 0.0 0.00 0.00 0.00 68 1009.7
20260509090652 42 151 0.0 1.0 0.00 0.00 0.00 67 1009.5
20260509090149 42 144 1.0 1.0 0.00 0.00 0.00 67 1009.7
20260509085647 42 145 0.0 1.0 0.00 0.00 0.00 68 1009.7
20260509085143 42 125 1.0 1.0 0.00 0.00 0.00 68 1009.7
20260509084640 42 138 0.0 1.0 0.00 0.00 0.00 67 1009.7
20260509084137 42 140 0.0 0.0 0.00 0.00 0.00 67 1009.7
20260509083635 42 141 0.0 1.0 0.00 0.00 0.00 68 1009.6
20260509083131 42 144 1.0 1.0 0.00 0.00 0.00 67 1009.8
20260509082628 42 162 0.0 1.0 0.00 0.00 0.00 68 1009.7
20260509082125 42 142 1.0 1.0 0.00 0.00 0.00 68 1009.8
20260509081622 42 142 0.0 1.0 0.00 0.00 0.00 68 1009.9
20260509081119 42 148 1.0 1.0 0.00 0.00 0.00 68 1009.9
20260509080618 42 142 0.0 1.0 0.00 0.00 0.00 68 1010.0
20260509080115 42 148 1.0 1.0 0.00 0.00 0.00 67 1010.1
20260509075613 43 145 1.0 1.0 0.00 0.00 0.00 66 1010.2
20260509075110 43 143 2.0 2.0 0.00 0.00 0.00 66 1010.0
20260509074607 43 132 1.0 2.0 0.00 0.00 0.00 65 1010.1
20260509074103 43 129 1.0 1.0 0.00 0.00 0.00 65 1010.0
20260509073600 43 135 1.0 1.0 0.00 0.00 0.00 66 1010.3
20260509073056 43 150 1.0 1.0 0.00 0.00 0.00 64 1010.1
20260509072553 43 139 1.0 2.0 0.00 0.00 0.00 64 1010.3
20260509072050 43 132 2.0 2.0 0.00 0.00 0.00 65 1010.2
20260509071547 43 135 1.0 2.0 0.00 0.00 0.00 64 1010.2
20260509071044 43 147 1.0 1.0 0.00 0.00 0.00 64 1010.2
20260509070541 43 146 0.0 1.0 0.00 0.00 0.00 63 1010.1
20260509070037 43 153 0.0 1.0 0.00 0.00 0.00 63 1010.4
20260509065533 43 123 1.0 1.0 0.00 0.00 0.00 63 1010.2
20260509065029 44 132 1.0 1.0 0.00 0.00 0.00 63 1010.1
20260509064527 43 146 1.0 1.0 0.00 0.00 0.00 62 1010.5
20260509064025 43 143 1.0 1.0 0.00 0.00 0.00 62 1010.3
20260509063520 43 149 0.0 0.0 0.00 0.00 0.00 61 1010.3
20260509063017 43 144 0.0 0.0 0.00 0.00 0.00 61 1010.4
20260509062515 43 151 0.0 1.0 0.00 0.00 0.00 59 1010.4
20260509062012 43 142 1.0 1.0 0.00 0.00 0.00 61 1010.4
20260509061509 43 148 1.0 2.0 0.00 0.00 0.00 61 1010.2
20260509061006 43 133 1.0 1.0 0.00 0.00 0.00 61 1010.5
20260509060503 43 144 1.0 1.0 0.00 0.00 0.00 62 1010.5
20260509055959 42 150 0.0 1.0 0.00 0.00 0.00 63 1010.6
20260509055454 41 137 1.0 1.0 0.00 0.00 0.00 66 1010.7
20260509054951 41 138 1.0 1.0 0.00 0.00 0.00 66 1010.8
20260509054448 41 147 1.0 1.0 0.00 0.00 0.00 66 1010.6
20260509053946 41 143 0.0 1.0 0.00 0.00 0.00 67 1010.7
20260509053444 42 145 1.0 1.0 0.00 0.00 0.00 65 1010.9
20260509052941 41 140 1.0 1.0 0.00 0.00 0.00 66 1011.1
20260509052438 41 136 1.0 2.0 0.00 0.00 0.00 66 1011.1
20260509051936 40 143 1.0 2.0 0.00 0.00 0.00 69 1010.9
20260509051434 41 149 1.0 1.0 0.00 0.00 0.00 69 1011.1
20260509050931 41 141 1.0 1.0 0.00 0.00 0.00 68 1011.1
20260509050427 41 138 1.0 1.0 0.00 0.00 0.00 68 1011.0
20260509045924 41 144 1.0 1.0 0.00 0.00 0.00 66 1011.0
20260509045421 41 136 2.0 2.0 0.00 0.00 0.00 67 1010.9
20260509044918 40 137 1.0 1.0 0.00 0.00 0.00 69 1011.1
20260509044416 40 139 1.0 1.0 0.00 0.00 0.00 68 1011.1
20260509043913 40 145 2.0 2.0 0.00 0.00 0.00 67 1011.4
20260509043408 40 141 1.0 2.0 0.00 0.00 0.00 66 1011.3
20260509042904 40 143 1.0 1.0 0.00 0.00 0.00 66 1011.5
20260509042401 41 143 1.0 2.0 0.00 0.00 0.00 65 1011.5
20260509041857 41 142 1.0 1.0 0.00 0.00 0.00 64 1011.5
20260509041354 41 138 1.0 2.0 0.00 0.00 0.00 63 1011.5
20260509040853 40 143 2.0 2.0 0.00 0.00 0.00 64 1011.2
20260509040351 40 150 1.0 1.0 0.00 0.00 0.00 64 1011.1
20260509035847 40 140 1.0 1.0 0.00 0.00 0.00 65 1011.3
20260509035344 41 137 1.0 1.0 0.00 0.00 0.00 64 1011.3
20260509034840 41 141 2.0 2.0 0.00 0.00 0.00 65 1011.1
20260509034338 41 141 1.0 1.0 0.00 0.00 0.00 64 1011.2
20260509033834 41 144 1.0 1.0 0.00 0.00 0.00 65 1011.2
20260509033332 41 143 1.0 1.0 0.00 0.00 0.00 65 1011.1
20260509032828 41 136 1.0 1.0 0.00 0.00 0.00 66 1011.3
20260509032326 41 143 2.0 2.0 0.00 0.00 0.00 68 1011.3
20260509031824 41 139 1.0 1.0 0.00 0.00 0.00 68 1011.1
20260509031321 41 142 1.0 1.0 0.00 0.00 0.00 69 1011.2
20260509030818 40 143 1.0 1.0 0.00 0.00 0.00 71 1011.2
20260509030316 41 144 1.0 1.0 0.00 0.00 0.00 74 1011.3
20260509025813 41 144 1.0 1.0 0.00 0.00 0.00 70 1011.4
20260509025308 41 143 1.0 1.0 0.00 0.00 0.00 69 1011.5
20260509024804 41 144 2.0 2.0 0.00 0.00 0.00 69 1011.5
20260509024300 41 142 1.0 1.0 0.00 0.00 0.00 69 1011.6
20260509023757 41 143 1.0 1.0 0.00 0.00 0.00 72 1011.5
20260509023255 41 143 1.0 1.0 0.00 0.00 0.00 75 1011.5
20260509022750 41 144 1.0 1.0 0.00 0.00 0.00 72 1011.7
20260509022249 42 144 1.0 1.0 0.00 0.00 0.00 71 1011.6
20260509021745 42 140 2.0 2.0 0.00 0.00 0.00 70 1011.7
20260509021242 42 144 1.0 2.0 0.00 0.00 0.00 70 1011.7
20260509020740 42 137 0.0 1.0 0.00 0.00 0.00 72 1011.7
20260509020238 42 140 1.0 1.0 0.00 0.00 0.00 70 1011.7
20260509015735 41 142 1.0 1.0 0.00 0.00 0.00 75 1011.7
20260509015233 41 139 1.0 1.0 0.00 0.00 0.00 77 1011.8
20260509014729 42 141 0.0 1.0 0.00 0.00 0.00 75 1011.7
20260509014227 42 143 0.0 1.0 0.00 0.00 0.00 75 1011.6
20260509013723 42 144 1.0 1.0 0.00 0.00 0.00 75 1011.6
20260509013218 42 146 0.0 0.0 0.00 0.00 0.00 73 1011.5
20260509012715 42 147 0.0 1.0 0.00 0.00 0.00 74 1011.5
20260509012212 42 147 0.0 0.0 0.00 0.00 0.00 72 1011.5
20260509011710 42 148 0.0 0.0 0.00 0.00 0.00 73 1011.3
20260509011208 43 147 0.0 0.0 0.00 0.00 0.00 73 1011.3
20260509010705 43 148 0.0 0.0 0.00 0.00 0.00 71 1011.1
20260509010201 44 148 0.0 0.0 0.00 0.00 0.00 66 1011.2
20260509005659 44 148 0.0 0.0 0.00 0.00 0.00 66 1011.1
20260509005155 44 148 0.0 0.0 0.00 0.00 0.00 67 1011.0
20260509004651 43 147 0.0 0.0 0.00 0.00 0.00 70 1011.1
20260509004148 44 148 0.0 1.0 0.00 0.00 0.00 69 1010.9
20260509003647 45 148 0.0 1.0 0.00 0.00 0.00 63 1011.0
20260509003144 45 148 0.0 1.0 0.00 0.00 0.00 63 1010.8
20260509002641 46 148 0.0 0.0 0.00 0.00 0.00 63 1010.9
20260509002138 46 148 0.0 0.0 0.00 0.00 0.00 64 1010.8
20260509001636 46 148 0.0 1.0 0.00 0.00 0.00 63 1010.9
20260509001131 46 152 0.0 0.0 0.00 0.00 0.00 65 1010.8
20260509000630 47 152 0.0 0.0 0.00 0.00 0.00 64 1011.1
20260509000126 47 149 0.0 0.0 0.00 0.00 0.00 63 1010.9
20260508235623 48 155 0.0 0.0 0.00 0.00 0.00 63 1010.9
20260508235119 48 155 0.0 0.0 0.00 0.00 0.00 62 1010.9
20260508234617 48 146 0.0 0.0 0.00 0.00 0.00 62 1010.8
20260508234113 48 147 0.0 0.0 0.00 0.00 0.00 61 1010.7
20260508233613 49 147 0.0 0.0 0.00 0.00 0.00 61 1010.7
20260508233110 49 155 1.0 1.0 0.00 0.00 0.00 60 1010.7
20260508232607 49 158 0.0 0.0 0.00 0.00 0.00 60 1010.8
20260508232104 49 153 0.0 0.0 0.00 0.00 0.00 60 1010.6
20260508231602 49 170 1.0 1.0 0.00 0.00 0.00 59 1010.6
20260508231058 50 160 1.0 1.0 0.00 0.00 0.00 60 1010.4
20260508230555 50 168 1.0 1.0 0.00 0.00 0.00 60 1010.6
20260508230051 50 181 2.0 2.0 0.00 0.00 0.00 57 1010.7
20260508225549 50 151 0.0 0.0 0.00 0.00 0.00 59 1010.8
20260508225045 50 135 1.0 2.0 0.00 0.00 0.00 58 1010.9
20260508224544 50 167 0.0 1.0 0.00 0.00 0.00 59 1011.0
20260508224040 50 249 4.0 6.0 0.00 0.00 0.00 57 1010.8
20260508223538 50 217 2.0 2.0 0.00 0.00 0.00 58 1011.0
20260508223035 51 162 2.0 3.0 0.00 0.00 0.00 55 1010.9
20260508222533 51 150 1.0 1.0 0.00 0.00 0.00 56 1011.0
20260508222029 51 172 1.0 2.0 0.00 0.00 0.00 55 1010.9
20260508221526 51 194 2.0 2.0 0.00 0.00 0.00 56 1010.8
20260508221021 52 217 1.0 2.0 0.00 0.00 0.00 57 1010.8
20260508220518 52 137 1.0 1.0 0.00 0.00 0.00 58 1010.8
20260508220015 52 152 1.0 1.0 0.00 0.00 0.00 57 1010.9
20260508215512 52 197 2.0 3.0 0.00 0.00 0.00 55 1010.8
20260508215008 53 216 2.0 3.0 0.00 0.00 0.00 56 1011.1
20260508214506 52 86 1.0 1.0 0.00 0.00 0.00 58 1010.9
20260508214002 53 193 2.0 2.0 0.00 0.00 0.00 55 1010.9
20260508213500 52 185 2.0 2.0 0.00 0.00 0.00 58 1011.0
20260508212954 52 171 3.0 3.0 0.00 0.00 0.00 57 1011.1